Regional Weather Roundup
Issued by NWS

Home | Current Version | Previous Version | Text Only | Print | Product List | Glossary On
Versions: 1 2 3 4 5 6 7 8 9 10 11 12 13 14 15 16 17 18 19 20 21 22 23 24 25 26 27 28 29 30 31 32 33 34 35 36 37 38 39 40 41 42 43 44 45 46 47 48 49 50
000
ASUS43 KMPX 020110
RWRMN
WEATHER ROUNDUP FOR MINNESOTA
NATIONAL WEATHER SERVICE TWIN CITIES/CHANHASSEN MN
800 PM CDT FRI AUG 01 2014


NOTE: "FAIR" INDICATES FEW OR NO CLOUDS BELOW 12,000 FEET WITH NO
SIGNIFICANT WEATHER AND/OR OBSTRUCTIONS TO VISIBILITY. N/A MEANS
CURRENT SKY AND/OR WEATHER CONDITIONS ARE NOT AVAILABLE.

MNZ060>063-068>070-020200-
   Twin Cities Metro

CITY           SKY/WX    TMP DP  RH WIND       PRES   REMARKS
TWIN CITIES    MOCLDY    81  57  43 VRB6      30.04S
ST PAUL        LGT RAIN  73  63  70 S6        30.05R
CRYSTAL        PTCLDY    80  60  50 NW7       30.04R
BLAINE         MOCLDY    79  61  53 CALM      30.05R
LAKEVILLE      CLEAR     75  61  60 SW3       30.05S
EDEN PRAIRIE   PTCLDY    76  62  62 CALM      30.04R
SOUTH ST PAUL  HVY RAIN  73  60  65 CALM      30.05R
LAKE ELMO      MOCLDY    73  64  73 CALM      30.06R
$$
MNZ001>005-007-008-013>017-022>024-027-028-020200-
   Northwest Minnesota

CITY           SKY/WX    TMP DP  RH WIND       PRES   REMARKS
BEMIDJI        PTCLDY    74  57  55 CALM      30.08S
HALLOCK        CLEAR     81  59  47 CALM      30.04F
ROSEAU         CLEAR     73  63  68 S3        30.06S
WARROAD        CLEAR     73  61  64 SE3       30.06F
THIEF RVR FALL CLEAR     75  61  60 CALM      30.07S
CROOKSTON      CLEAR     75  66  73 CALM      30.07S
FOSSTON        PTCLDY    73  61  64 CALM      30.09R HAZE
DETROIT LAKES  PTCLDY    73  61  64 CALM      30.09S
MOORHEAD       PTCLDY    75  66  73 N3        30.07S
PARK RAPIDS    CLEAR     77  54  44 N8        30.08R
$$
MNZ006-009>011-018-025>026-020200-
   North Central Minnesota

CITY           SKY/WX    TMP DP  RH WIND       PRES   REMARKS
BAUDETTE       CLEAR     69  53  56 CALM      30.07F
FLAG ISLAND    CLEAR     75  52  43 S6        30.04F
INTL FALLS     CLEAR     71  59  65 CALM      30.06S
WASKISH        CLEAR     73  50  43 CALM      30.07S
BIG FORK       CLEAR     72  61  68 N1        30.07S
LONGVILLE      CLEAR     68  64  88 CALM      30.07S
GRAND RAPIDS   CLEAR     72  61  68 CALM      30.07S
CRANE LAKE     CLEAR     64  57  77 CALM      30.08S
ORR            CLEAR     64  55  72 CALM      30.05S
COOK           CLEAR     70  54  56 CALM      30.08S
$$
MNZ012-019>021-037-020200-
   Northeast Minnesota

CITY           SKY/WX    TMP DP  RH WIND       PRES   REMARKS
DULUTH         PTCLDY    63  53  70 SE8       30.08R
ELY            CLEAR     72  50  46 CALM      30.08R
HIBBING        CLEAR     75  57  53 N3        30.07R
EVELETH        PTCLDY    72  61  68 SE3       30.09R
DULUTH HARBOR  PTCLDY    61  55  82 NE6       30.08S
TWO HARBORS    CLEAR     64  52  63 NE3       30.06S
SILVER BAY     CLEAR     63  55  77 CALM      30.07S
GRAND MARAIS     N/A     57  51  80 CALM      30.08S
G MARAIS ARPRT CLEAR     59  52  77 CALM      30.12R
$$
MNZ029>031-032-039>041-046>048-054>057-064-020200-
   West Central Minnesota

CITY           SKY/WX    TMP DP  RH WIND       PRES   REMARKS
FERGUS FALLS   PTCLDY    77  57  50 N5        30.06S
WHEATON        PTCLDY    75  63  64 CALM      30.07S
MORRIS         CLEAR     75  66  73 CALM      30.06S
ALEXANDRIA     PTCLDY    77  61  57 NW3       30.09R
ELBOW LAKE     FAIR      75  60  57 N3        30.06S
WADENA         CLEAR     72  61  68 N5        30.07S
GLENWOOD       CLEAR     75  61  60 CALM      30.09R
APPLETON       PTCLDY    81  63  54 N5        30.06S
BENSON         CLEAR     77  64  65 NE3       30.06S
ORTONVILLE     CLEAR     79  63  57 NE5       30.06F
MADISON        CLEAR     81  64  57 CALM      30.06F
WILLMAR        FAIR      79  61  53 CALM      30.08S
$$
MNZ033>034-036-042>043-049>051-058-059-020200-
   Central Minnesota

CITY           SKY/WX    TMP DP  RH WIND       PRES   REMARKS
ST CLOUD       PTCLDY    78  63  59 CALM      30.05S
SAUK CENTRE    FAIR      76  59  55 NW3       30.07S
PAYNESVILLE    HVY RAIN  70  67  90 CALM      30.07S
AITKIN         CLEAR     73  64  73 CALM      30.06R
PINE RIVER     CLEAR     75  59  57 CALM      30.10S
BRAINERD       CLEAR     73  62  68 CALM      30.07R
STAPLES        CLEAR     75  57  53 NW6       30.07S
LONG PRAIRIE   FAIR      75  59  57 W3        30.07S
LITTLE FALLS   CLEAR     70  61  73 CALM      30.06F
LITCHFIELD     PTCLDY    75  64  69 CALM      30.07S
BUFFALO        CLEAR     77  61  57 CALM      30.06S
MAPLE LAKE     PTCLDY    74  68  79 CALM      30.06S
$$
MNZ037-044-045-052-053-020200-
   East Central Minnesota

CITY           SKY/WX    TMP DP  RH WIND       PRES   REMARKS
PRINCETON      CLEAR     75  66  73 CALM      30.05S
MORA           CLEAR     72  63  73 CALM      30.07S
CAMBRIDGE      PTCLDY    79  64  61 CALM      30.04S
RUSH CITY      PTCLDY    75  63  66 CALM      30.05S
MOOSE LAKE     PTCLDY    72  61  68 CALM      30.04S
HINCKLEY       FAIR      75  64  69 CALM      30.06S
CLOQUET        MOCLDY    66  57  72 CALM      30.08S
MCGREGOR       CLEAR     75  61  60 NW5       30.06S
$$
MNZ071>073-080-081-089-090-097-098-020200-
   Southwest Minnesota

CITY           SKY/WX    TMP DP  RH WIND       PRES   REMARKS
MONTEVIDEO     CLEAR     79  64  61 CALM      30.07S
GRANITE FALLS  CLEAR     77  63  62 CALM      30.07F
CANBY          CLEAR     78  62  58 CALM      30.07F
MARSHALL       CLEAR     79  57  47 CALM      30.06F
REDWOOD FALLS  CLEAR     79  62  56 NW3       30.06S
OLIVIA         CLEAR     77  63  61 W3        30.06
PIPESTONE      CLEAR     79  55  44 CALM      30.10S
WINDOM         CLEAR     77  61  57 CALM      30.09R
WORTHINGTON    CLEAR     77  57  50 CALM      30.11S
JACKSON        CLEAR     73  64  73 CALM      30.10R
TRACY          CLEAR     78  61  55 CALM      30.08S
SLAYTON        CLEAR     75  62  63 CALM      30.11S
$$
MNZ065>067-074>077-082>085-091>093-020200-
   South Central Minnesota

CITY           SKY/WX    TMP DP  RH WIND       PRES   REMARKS
MANKATO        PTCLDY    79  59  50 W3        30.06S
NEW ULM        PTCLDY    77  63  61 N3        30.06S
ST JAMES       CLEAR     79  63  57 CALM      30.07F
FAIRMONT       CLEAR     79  54  41 CALM      30.08R
GLENCOE        PTCLDY    79  60  51 W7        30.05S
FARIBAULT      PTCLDY    73  63  68 CALM      30.07R
OWATONNA       PTCLDY    72  64  78 CALM      30.07S
WASECA         PTCLDY    72  59  64 CALM      30.08S
ALBERT LEA     CLEAR     75  61  60 CALM      30.07S
$$
MNZ078>079-086>088-094>096-020200-
   Southeast Minnesota

CITY           SKY/WX    TMP DP  RH WIND       PRES   REMARKS
ROCHESTER      CLEAR     73  64  73 CALM      30.09R
RED WING       CLEAR     75  66  73 CALM      30.04R
STANTON        CLEAR     76  64  65 CALM      30.04S
DODGE CENTER   CLEAR     75  64  69 CALM      30.08S
WINONA         CLEAR     77  61  57 CALM      30.06R
AUSTIN         CLEAR     75  59  57 CALM      30.08R
PRESTON        CLEAR     75  65  72 CALM      30.09S
$$
ABBREVIATIONS USED IN REMARKS
   TC - TEMPERATURES IN CELSIUS
  WCI - WIND CHILL INDEX
   HX - HEAT INDEX
  VSB - VISIBILITY
$$



USA.gov is the U.S. government's official web portal to all federal, state and local government web resources and services.